Terminal Aerodrome Forecast
Issued by NWS

Home | Current Version | Previous Version | Text Only | Print | Product List | Glossary On
Versions: 1 2 3 4 5 6 7 8 9 10 11 12 13 14 15 16 17 18
000
FTUS45 KLKN 260104 AAA
TAFEKO
TAF AMD
KEKO 260104Z 2601/2624 VRB06KT P6SM -SHRA VCTS BKN030 BKN045CB
     FM260300 VRB05KT P6SM -SHRA BKN050 BKN080
     FM260900 VRB05KT P6SM SCT050 BKN100
     FM261800 29010G16KT P6SM SCT060 SCT120=

USA.gov is the U.S. government's official web portal to all federal, state and local government web resources and services.